Okmulgee, OK

8:22 AM CDT on October 18, 2017 (GMT -0500)
Okmulgee Regional

Weather History for KOKM - October, 2013

Change the Weather History Date:

Wednesday, October 23, 2013

  Actual Average (KMKO) Record (KMKO)
Temperature  
Mean Temperature 53 °F -  
Max Temperature 68 °F 70 °F 89 °F (2003)
Min Temperature 39 °F 47 °F 32 °F (2006)
Degree Days  
Heating Degree Days 12    
Growing Degree Days 3 (Base 50)    
Moisture  
Dew Point 43 °F    
Average Humidity 71    
Maximum Humidity 94    
Minimum Humidity 41    
Precipitation  
Precipitation 0.00 in - - ()
Sea Level Pressure  
Sea Level Pressure 30.10 in    
Wind  
Wind Speed 6 mph (ENE)    
Max Wind Speed 12 mph    
Max Gust Speed 20 mph    
Visibility 10 miles    
Events      
Averages and records for this station are not official NWS values.
T = Trace of Precipitation, MM = Missing Value Source: NWS Daily Summary

Daily Weather History Graph

Daily Weather History Graph

Search for Another Location

Airport or City:

Trip Planner

Search our weather history database for the weather conditions in past years. The results will help you decide how hot, cold, wet, or windy it might be!

Date:

Astronomy

Oct. 23, 2013 Rise Set
Actual Time 7:37 AM CDT 6:37 PM CDT
Civil Twilight 7:11 AM CDT 7:03 PM CDT
Nautical Twilight 6:41 AM CDT 7:33 PM CDT
Astronomical Twilight 6:12 AM CDT 8:03 PM CDT
Moon 10:14 PM CDT (10/23) 11:50 AM CDT (10/23)
Length of Visible Light 11h 52m
Length of Day
11h 00m
Waning Gibbous, 79% of the Moon is Illuminated
Oct 23
Waning Gibbous
Oct 26
Last Quarter
Nov 3
New
Nov 9
First Quarter
Nov 17
Full

Hourly Weather History & Observations

Time (CDT) Temp. Windchill Dew Point Humidity Pressure Visibility Wind Dir Wind Speed Gust Speed Precip Events Conditions
12:15 AM 49.3 °F - 43.9 °F 82% 30.07 in 10.0 mi ESE 4.6 mph - N/A   Clear
12:35 AM 48.2 °F - 43.9 °F 85% 30.07 in 10.0 mi NE 5.8 mph - N/A   Clear
12:55 AM 48.4 °F - 42.8 °F 81% 30.08 in 10.0 mi NE 3.5 mph - N/A   Clear
1:15 AM 45.0 °F - 42.6 °F 91% 30.09 in 10.0 mi Calm Calm - N/A   Clear
1:35 AM 44.6 °F - 43.0 °F 94% 30.09 in 10.0 mi Calm Calm - N/A   Clear
1:55 AM 44.2 °F 40.3 °F 42.1 °F 92% 30.10 in 10.0 mi NNE 6.9 mph - N/A   Clear
2:15 AM 47.5 °F - 42.3 °F 82% 30.11 in 10.0 mi NNE 5.8 mph - N/A   Clear
2:35 AM 46.4 °F 42.4 °F 42.3 °F 85% 30.11 in 10.0 mi NNE 8.1 mph - N/A   Clear
2:55 AM 45.7 °F 41.0 °F 42.3 °F 88% 30.10 in 10.0 mi NNE 9.2 mph - N/A   Clear
3:15 AM 45.3 °F 41.6 °F 41.9 °F 88% 30.11 in 10.0 mi NNE 6.9 mph - N/A   Clear
3:35 AM 44.8 °F - 41.5 °F 88% 30.11 in 10.0 mi Calm Calm - N/A   Clear
3:55 AM 45.5 °F 41.3 °F 40.6 °F 83% 30.11 in 10.0 mi NNE 8.1 mph - N/A   Clear
4:15 AM 43.5 °F 39.4 °F 40.1 °F 88% 30.11 in 10.0 mi NNE 6.9 mph - N/A   Clear
4:35 AM 42.3 °F 37.3 °F 40.1 °F 92% 30.11 in 10.0 mi NNE 8.1 mph - N/A   Clear
4:55 AM 43.2 °F 41.5 °F 40.3 °F 90% 30.11 in 10.0 mi NNE 3.5 mph - N/A   Clear
5:15 AM 43.2 °F - 39.6 °F 87% 30.13 in 10.0 mi Calm Calm - N/A   Clear
5:35 AM 42.4 °F - 39.4 °F 89% 30.14 in 10.0 mi Calm Calm - N/A   Clear
5:55 AM 41.0 °F 37.1 °F 38.7 °F 91% 30.14 in 10.0 mi NE 5.8 mph - N/A   Clear
6:15 AM 40.6 °F 36.0 °F 38.3 °F 91% 30.15 in 10.0 mi NNE 6.9 mph - N/A   Clear
6:35 AM 41.4 °F 39.4 °F 38.1 °F 88% 30.16 in 10.0 mi NE 3.5 mph - N/A   Clear
6:55 AM 40.5 °F 37.3 °F 37.6 °F 89% 30.17 in 10.0 mi NE 4.6 mph - N/A   Clear
7:15 AM 39.6 °F 34.7 °F 37.4 °F 92% 30.17 in 10.0 mi NNE 6.9 mph - N/A   Clear
7:35 AM 40.1 °F 36.1 °F 37.6 °F 91% 30.17 in 10.0 mi NE 5.8 mph - N/A   Clear
7:55 AM 40.3 °F 36.3 °F 38.1 °F 92% 30.17 in 10.0 mi NNE 5.8 mph - N/A   Clear
8:15 AM 41.7 °F 37.3 °F 39.2 °F 91% 30.17 in 10.0 mi NNE 6.9 mph - N/A   Clear
8:35 AM 43.9 °F 41.3 °F 40.3 °F 87% 30.17 in 10.0 mi NE 4.6 mph - N/A   Clear
8:55 AM 46.6 °F - 41.4 °F 82% 30.17 in 10.0 mi ENE 5.8 mph - N/A   Clear
9:15 AM 48.0 °F - 42.1 °F 80% 30.17 in 10.0 mi ENE 4.6 mph - N/A   Clear
9:35 AM 50.0 °F - 42.1 °F 74% 30.18 in 10.0 mi ENE 5.8 mph - N/A   Clear
9:55 AM 51.8 °F - 40.5 °F 65% 30.18 in 10.0 mi East 6.9 mph - N/A   Clear
10:15 AM 53.1 °F - 39.9 °F 61% 30.18 in 10.0 mi East 9.2 mph - N/A   Clear
10:35 AM 54.5 °F - 39.2 °F 56% 30.19 in 10.0 mi ENE 6.9 mph - N/A   Clear
10:55 AM 55.6 °F - 39.4 °F 55% 30.19 in 10.0 mi East 6.9 mph - N/A   Clear
11:15 AM 56.5 °F - 39.6 °F 53% 30.18 in 10.0 mi ENE 5.8 mph - N/A   Clear
11:35 AM 57.6 °F - 39.4 °F 51% 30.17 in 10.0 mi East 5.8 mph - N/A   Clear
11:55 AM 58.5 °F - 39.4 °F 49% 30.17 in 10.0 mi East 6.9 mph - N/A   Clear
12:15 PM 60.1 °F - 40.3 °F 48% 30.16 in 10.0 mi ESE 10.4 mph - N/A   Clear
12:35 PM 61.2 °F - 40.6 °F 47% 30.15 in 10.0 mi East 8.1 mph - N/A   Clear
12:55 PM 61.9 °F - 41.7 °F 48% 30.14 in 10.0 mi ESE 5.8 mph - N/A   Clear
1:15 PM 63.0 °F - 41.5 °F 45% 30.12 in 10.0 mi ESE 5.8 mph - N/A   Clear
1:35 PM 63.5 °F - 41.7 °F 45% 30.11 in 10.0 mi ESE 8.1 mph - N/A   Clear
1:55 PM 64.0 °F - 41.9 °F 44% 30.10 in 10.0 mi SE 4.6 mph - N/A   Clear
2:15 PM 65.5 °F - 42.4 °F 43% 30.09 in 4.0 mi SSE 5.8 mph - N/A   Haze
2:35 PM 65.8 °F - 42.6 °F 43% 30.07 in 10.0 mi SE 4.6 mph - N/A   Clear
2:55 PM 66.0 °F - 43.0 °F 43% 30.07 in 7.0 mi SSE 8.1 mph - N/A   Clear
3:15 PM 66.6 °F - 42.3 °F 41% 30.06 in 10.0 mi SE 10.4 mph - N/A   Clear
3:35 PM 66.7 °F - 43.0 °F 42% 30.04 in 10.0 mi SSE 10.4 mph 17.3 mph N/A   Clear
3:55 PM 66.9 °F - 43.2 °F 42% 30.04 in 10.0 mi SSE 10.4 mph - N/A   Clear
4:15 PM 67.3 °F - 44.1 °F 43% 30.04 in 10.0 mi SE 10.4 mph 19.6 mph N/A   Clear
4:35 PM 67.3 °F - 44.8 °F 44% 30.03 in 10.0 mi SSE 11.5 mph - N/A   Clear
4:55 PM 67.8 °F - 44.6 °F 43% 30.02 in 2.5 mi SSE 11.5 mph 16.1 mph N/A   Haze
5:15 PM 67.8 °F - 45.1 °F 44% 30.01 in 10.0 mi South 9.2 mph - N/A   Clear
5:35 PM 67.3 °F - 45.7 °F 46% 30.01 in 10.0 mi SSE 8.1 mph - N/A   Clear
5:55 PM 66.6 °F - 46.0 °F 48% 30.01 in 10.0 mi South 6.9 mph - N/A   Clear
6:15 PM 64.2 °F - 46.6 °F 53% 30.00 in 7.0 mi SSE 5.8 mph - N/A   Clear
6:35 PM 61.7 °F - 46.4 °F 57% 30.01 in 5.0 mi Calm Calm - N/A   Haze
6:55 PM 58.1 °F - 46.2 °F 65% 30.01 in 10.0 mi Calm Calm - N/A   Clear
7:15 PM 55.6 °F - 46.8 °F 72% 30.02 in 10.0 mi NNE 5.8 mph - N/A   Clear
7:35 PM 54.5 °F - 46.9 °F 76% 30.02 in 10.0 mi NE 8.1 mph - N/A   Clear
7:55 PM 53.6 °F - 46.9 °F 78% 30.02 in 10.0 mi NNE 5.8 mph - N/A   Clear
8:15 PM 52.7 °F - 46.9 °F 81% 30.03 in 10.0 mi NNE 6.9 mph - N/A   Clear
8:35 PM 52.0 °F - 46.9 °F 83% 30.04 in 10.0 mi North 5.8 mph - N/A   Clear
8:55 PM 52.7 °F - 46.6 °F 80% 30.04 in 10.0 mi NE 5.8 mph - N/A   Clear
9:15 PM 52.5 °F - 46.6 °F 80% 30.04 in 10.0 mi NNE 8.1 mph - N/A   Clear
9:35 PM 51.3 °F - 46.4 °F 83% 30.05 in 10.0 mi NE 5.8 mph - N/A   Clear
9:55 PM 50.9 °F - 46.4 °F 85% 30.06 in 10.0 mi NE 4.6 mph - N/A   Clear
10:15 PM 49.1 °F - 45.5 °F 87% 30.06 in 10.0 mi NE 4.6 mph - N/A   Clear
10:35 PM 49.1 °F - 45.7 °F 88% 30.07 in 10.0 mi NNE 5.8 mph - N/A   Clear
10:55 PM 50.0 °F - 45.7 °F 85% 30.07 in 10.0 mi NE 5.8 mph - N/A   Clear
11:15 PM 49.6 °F - 45.1 °F 84% 30.07 in 10.0 mi NNE 8.1 mph - N/A   Clear
11:35 PM 50.0 °F - 44.8 °F 82% 30.07 in 10.0 mi NE 4.6 mph - N/A   Clear
11:55 PM 49.3 °F - 44.2 °F 83% 30.07 in 10.0 mi ENE 3.5 mph - N/A   Clear